COSMOS 1603 DEB, 43312

Orbit data source: Space-Track

COSMOS 1603 DEB, 43312 is space debris in LEO originally from a launch on Fri, 28 Sep 1984 UTC launched from the Tyuratam Missile And Space Complex (TTMTR). Debris objects in space refer to the collection of defunct objects orbiting the Earth. Examples of debris include non-operational satellites, rocket bodies, and fragments generated from explosions, collisions, or faulty payload assembly.

Loading next visibility...
Identifier
43312, 1984-106AE
Orbit
LEO
Country
Flag of CISCIS
Related business
Manufacturer
Unknown
Mission
Spacecraft
Bus & Motor
Unknown
Mass
Unknown
Launch date (UTC)
1984-09-28 (42 years ago)
Launch vehicle
Unknown
Launch site
Tyuratam Missile And Space Complex (TTMTR)
Object type
Payload
Rocket body
Debris
Shape & HBR
Unknown shape, 0.1 m
Radar Cross Section
Small (<0.1 m²)

Expand to show TLE details & history
Last TLE update: 9 hours ago

TLE from 9 hours ago
0 COSMOS 1603 DEB
1 43312U 84106AE  26095.20385254  .00001631  00000-0  76107-3 0  9998
2 43312  71.0244 172.7622 0018354 328.2660  31.7358 14.21805891524319
Epoch: 2026-04-05T04:53Z
TLE epoch observation values (Epoch: 2026-04-05T04:53:32.859Z)
Latitude
-0.00007°
Longitude
-94.13738°
Altitude
810.432 km
Speed
7.454 km/s
True Right ascension
11h 31m 02s
True Declination
0° 00' 00"
Sunlit
Object was in full shadow at epoch
Visualization orbit readout
Latitude
Unknown
Longitude
Unknown
Altitude
Unknown
Speed
Unknown
Apparent Right ascension
Unknown
Apparent Declination
Unknown
Sunlit
N/A
Visualization observer readout
Local Sidereal Time
19:27:17
Azimuth
Unknown
Elevation
Unknown
Doppler factor
Unknown
Orbital elements
Apogee altitude
830.374 km
Perigee altitude
803.961 km
Semi-major axis
7,195.305 km
Eccentricity
0.00184
Inclination
71.0244°
RAAN
172.7622°
Arg. of periapsis
328.266°
True anomaly
31.84665°
Mean anomaly
31.7358°
Eccentric anomaly
31.7912°
Mean motion
3.55606 °/min
Orbital period
101.24 mins
BSTAR
0.00076107
Loading maneuver chart data...
Computing Atmospheric mass density...
Loading historical data...
Loading historical data...
Loading historical data...
Loading historical data...
Loading historical data...
Loading historical data...
Loading historical data...

Documentation

Showing up to 5 results
|